TimePST,TemperatureF,Dew PointF,Humidity,Sea Level PressureIn,VisibilityMPH,Wind Direction,Wind SpeedMPH,Gust SpeedMPH,PrecipitationIn,Events,Conditions,WindDirDegrees,DateUTC
12:56 AM,47.8,27.1,45,30.09,10.0,Variable,4.6,-,N/A,,Clear,0,2014-01-04 08:56:00
1:56 AM,41.9,28.0,58,30.09,10.0,Calm,Calm,-,N/A,,Clear,0,2014-01-04 09:56:00
2:56 AM,47.8,18.1,31,30.09,10.0,Variable,3.5,-,N/A,,Clear,0,2014-01-04 10:56:00
3:56 AM,52.0,17.1,25,30.08,10.0,Variable,6.9,-,N/A,,Clear,0,2014-01-04 11:56:00
4:56 AM,45.9,21.0,37,30.09,10.0,Variable,3.5,-,N/A,,Clear,0,2014-01-04 12:56:00
5:56 AM,43.0,26.1,51,30.09,10.0,NNE,3.5,-,N/A,,Clear,30,2014-01-04 13:56:00
6:56 AM,52.0,22.1,31,30.07,10.0,NNE,9.2,16.1,N/A,,Clear,30,2014-01-04 14:56:00
7:56 AM,52.0,23.0,32,30.09,10.0,NE,9.2,-,N/A,,Clear,50,2014-01-04 15:56:00
8:56 AM,54.0,23.0,30,30.10,10.0,Variable,3.5,-,N/A,,Clear,0,2014-01-04 16:56:00
9:56 AM,52.0,28.0,40,30.12,10.0,ENE,4.6,-,N/A,,Clear,60,2014-01-04 17:56:00
10:56 AM,56.8,26.1,31,30.13,10.0,Calm,Calm,-,N/A,,Clear,0,2014-01-04 18:56:00
11:56 AM,61.0,30.0,31,30.11,9.0,Calm,Calm,-,N/A,,Clear,0,2014-01-04 19:56:00
12:56 PM,68.0,26.1,21,30.09,10.0,Calm,Calm,-,N/A,,Clear,0,2014-01-04 20:56:00
1:56 PM,68.0,26.1,21,30.08,10.0,Variable,3.5,-,N/A,,Clear,0,2014-01-04 21:56:00
2:56 PM,68.0,23.0,18,30.08,9.0,Calm,Calm,-,N/A,,Clear,0,2014-01-04 22:56:00
3:56 PM,68.0,20.1,16,30.08,10.0,Calm,Calm,-,N/A,,Clear,0,2014-01-04 23:56:00
4:56 PM,68.0,16.2,14,30.09,10.0,ENE,5.8,-,N/A,,Clear,60,2014-01-05 00:56:00
5:56 PM,57.9,18.1,21,30.11,10.0,Calm,Calm,-,N/A,,Clear,0,2014-01-05 01:56:00
6:56 PM,54.9,20.1,26,30.13,10.0,Variable,4.6,-,N/A,,Clear,0,2014-01-05 02:56:00
7:56 PM,54.9,20.1,26,30.14,10.0,East,4.6,-,N/A,,Clear,80,2014-01-05 03:56:00
8:56 PM,59.9,7.2,12,30.15,10.0,Variable,4.6,-,N/A,,Clear,0,2014-01-05 04:56:00
9:56 PM,59.0,15.1,18,30.16,10.0,Variable,4.6,-,N/A,,Clear,0,2014-01-05 05:56:00
10:56 PM,63.9,3.0,9,30.16,10.0,NE,11.5,-,N/A,,Clear,50,2014-01-05 06:56:00
11:56 PM,63.9,2.1,9,30.14,10.0,NE,12.7,20.7,N/A,,Clear,50,2014-01-05 07:56:00